This is the latest recevied weather packets stored in our database for station/object N5COP-13. If no packets are shown the sender has not sent any weather packets the latest 10 day(s).
| Time | Temp. | Humidity | Pressure | Rain* | Wind** | Luminosity | Snow |
|---|---|---|---|---|---|---|---|
| 1777665779 | 11.11° C | 70% | 1021.1 hPa | 0 mm | - | 332 W/m² | - |
| 1777665476 | 11.11° C | 69% | 1021.1 hPa | 0 mm | - | 296 W/m² | - |
| 1777664261 | 11.67° C | 63% | 1021.2 hPa | 0 mm | - | 136 W/m² | - |
| 1777663656 | 11.67° C | 60% | 1020.9 hPa | 0 mm | - | 198 W/m² | - |
| 1777663353 | 11.67° C | 60% | 1020.9 hPa | 0 mm | - | 234 W/m² | - |
| 1777663051 | 12.22° C | 58% | 1020.8 hPa | 0 mm | - | 245 W/m² | - |
| 1777662748 | 12.22° C | 58% | 1020.8 hPa | 0 mm | - | 246 W/m² | - |
| 1777662140 | 12.22° C | 58% | 1020.9 hPa | 0 mm | - | 357 W/m² | - |
| 1777661836 | 11.67° C | 58% | 1020.9 hPa | 0 mm | - | 300 W/m² | - |
| 1777661532 | 12.22° C | 59% | 1020.8 hPa | 0 mm | - | 311 W/m² | - |
| 1777661228 | 11.67° C | 59% | 1021 hPa | 0 mm | - | 300 W/m² | - |
| 1777660619 | 12.22° C | 57% | 1021.1 hPa | 0 mm | - | 304 W/m² | - |
| 1777660316 | 12.22° C | 57% | 1020.8 hPa | 0 mm | - | 296 W/m² | - |
| 1777660013 | 12.22° C | 56% | 1021 hPa | 0 mm | - | 280 W/m² | - |
| 1777659709 | 11.67° C | 56% | 1020.9 hPa | 0 mm | - | 226 W/m² | - |
| 1777659407 | 11.67° C | 55% | 1021.1 hPa | 0 mm | - | 242 W/m² | - |
| 1777659104 | 11.67° C | 55% | 1021 hPa | 0 mm | - | 212 W/m² | - |
| 1777658802 | 11.67° C | 56% | 1021.1 hPa | 0 mm | - | 192 W/m² | - |
| 1777658497 | 11.67° C | 55% | 1021.2 hPa | 0 mm | - | 168 W/m² | - |
| 1777658194 | 11.67° C | 54% | 1021.2 hPa | 0 mm | - | 192 W/m² | - |
| 1777656983 | 11.67° C | 55% | 1021.1 hPa | 0 mm | - | 178 W/m² | - |
| 1777656680 | 12.22° C | 56% | 1021.2 hPa | 0 mm | - | 164 W/m² | - |
| 1777656376 | 12.22° C | 55% | 1021.2 hPa | 0 mm | - | 189 W/m² | - |
| 1777656071 | 12.22° C | 56% | 1021.1 hPa | 0 mm | - | 241 W/m² | - |
| 1777655767 | 12.22° C | 56% | 1021.3 hPa | 0 mm | - | 275 W/m² | - |
* Rain latest hour (hover to see other rain measurements)
** Current wind speed in m/s (hover to see current wind gust speed)